Location: Mohawk View
(42.7837°N, 73.7885°W)
Time: 06:33:31
(UTC+00:00)

Cosmos 2263 Rocket - Visible Passes

Search period start: 26 October 2021 00:00
Search period end: 05 November 2021 00:00
Orbit: 825 x 847 km, 71.0° (Epoch: 25 October)

Date Brightness Start Highest point End Pass type
(mag) Time Alt. Az. Time Alt. Az. Time Alt. Az.
26 Oct 4.3 23:06:51 10° NW 23:11:32 29° WSW 23:16:13 10° SSW visible
27 Oct 4.2 22:49:57 10° NW 22:54:47 31° WSW 22:59:36 10° SSW visible
28 Oct 4.1 22:33:04 10° NW 22:38:02 34° WSW 22:42:58 10° SSW visible
29 Oct 4.0 22:16:12 10° NW 22:21:16 37° WSW 22:26:19 10° S visible
01 Nov 3.5 10:49:30 10° S 10:54:50 46° ESE 11:00:10 10° NE visible
02 Nov 3.6 10:32:49 10° S 10:38:04 43° ESE 10:43:19 10° NE visible
03 Nov 3.7 10:16:08 10° S 10:21:18 39° ESE 10:26:28 10° NE visible
04 Nov 3.8 09:59:29 10° S 10:04:33 36° ESE 10:09:36 10° NE visible
